GW3373 Weather Reports


Display with metric or nautical units.
time (UTC)temp
F
wind
direction
speed
MPH
gust
MPH
rain 1hr
in
rain 24hr
in
rain mn
in
humidity
%
barometer
mb
20260504194611 69 285 2.0 2.0 0.00 0.00 0.00 33 1006.6
20260504193609 72 130 2.0 3.0 0.00 0.00 0.00 32 1006.7
20260504192606 71 217 3.0 3.0 0.00 0.00 0.00 33 1006.8
20260504191601 70 203 3.0 4.0 0.00 0.00 0.00 33 1006.7
20260504190559 71 202 5.0 6.0 0.00 0.00 0.00 33 1006.8
20260504185559 70 260 1.0 2.0 0.00 0.00 0.00 34 1007.0
20260504184556 70 256 3.0 4.0 0.00 0.00 0.00 36 1007.1
20260504183555 70 259 2.0 2.0 0.00 0.00 0.00 34 1007.3
20260504182555 71 235 3.0 3.0 0.00 0.00 0.00 33 1007.4
20260504181555 70 351 3.0 4.0 0.00 0.00 0.00 34 1007.3
20260504180552 69 205 8.0 9.0 0.00 0.00 0.00 32 1007.4
20260504175548 69 212 3.0 4.0 0.00 0.00 0.00 32 1007.3
20260504174548 69 16 4.0 9.0 0.00 0.00 0.00 32 1007.4
20260504173547 70 203 6.0 8.0 0.00 0.00 0.00 33 1007.5
20260504172547 68 287 0.0 0.0 0.00 0.00 0.00 34 1007.7
20260504171546 68 212 2.0 2.0 0.00 0.00 0.00 35 1007.9
20260504170545 69 219 1.0 2.0 0.00 0.00 0.00 33 1007.6
20260504150519 63 248 1.0 1.0 0.00 0.00 0.00 41 1009.3
20260504140504 61 295 2.0 3.0 0.00 0.00 0.00 42 1009.3
20260504130458 56 218 2.0 2.0 0.00 0.00 0.00 53 1009.9
20260504110432 41 260 0.0 0.0 0.00 0.00 0.00 81 1010.3
20260504100418 38 285 0.0 0.0 0.00 0.00 0.00 84 1010.3
20260504081354 42 285 0.0 0.0 0.00 0.00 0.00 73 1010.0
20260504080353 42 285 0.0 0.0 0.00 0.00 0.00 76 1009.9
20260504070344 42 285 0.0 0.0 0.00 0.00 0.00 74 1009.6
20260504050317 40 285 0.0 0.0 0.00 0.00 0.00 80 1009.9
20260504045314 39 285 0.0 0.0 0.00 0.00 0.00 79 1009.9
20260504044314 39 285 0.0 0.0 0.00 0.00 0.00 77 1010.1
20260504043314 39 285 0.0 0.0 0.00 0.00 0.00 80 1010.1
20260504042314 38 285 0.0 0.0 0.00 0.00 0.00 79 1010.1
20260504041312 37 285 0.0 0.0 0.00 0.00 0.00 78 1010.2
20260504040312 36 285 0.0 0.0 0.00 0.00 0.00 76 1009.9
20260504035311 36 285 0.0 0.0 0.00 0.00 0.00 81 1010.0
20260504034306 36 285 0.0 0.0 0.00 0.00 0.00 77 1009.8
20260504033301 36 285 0.0 0.0 0.00 0.00 0.00 82 1009.7
20260504032300 36 285 0.0 0.0 0.00 0.00 0.00 83 1009.6
20260504031300 35 285 0.0 0.0 0.00 0.00 0.00 82 1009.5
20260504030259 35 285 0.0 0.0 0.00 0.00 0.00 80 1009.6
20260504025259 36 285 0.0 0.0 0.00 0.00 0.00 80 1009.5
20260504024258 36 284 0.0 0.0 0.00 0.00 0.00 79 1009.6
20260504023257 36 285 0.0 0.0 0.00 0.00 0.00 77 1009.6
20260504022255 37 285 0.0 0.0 0.00 0.00 0.00 77 1009.6
20260504021250 37 284 0.0 0.0 0.00 0.00 0.00 76 1009.3
20260504020249 38 285 0.0 0.0 0.00 0.00 0.00 75 1009.3
20260504015247 38 285 0.0 0.0 0.00 0.00 0.00 75 1009.4
20260504014246 39 285 0.0 0.0 0.00 0.00 0.00 75 1009.6
20260504013241 39 285 0.0 0.0 0.00 0.00 0.00 75 1009.3
20260504012241 40 285 0.0 0.0 0.00 0.00 0.00 73 1009.1
20260504011240 40 284 0.0 0.0 0.00 0.00 0.00 75 1009.0
20260504010238 41 284 0.0 0.0 0.00 0.00 0.00 73 1008.8
20260504005238 41 285 0.0 0.0 0.00 0.00 0.00 65 1008.8
20260504004238 42 285 0.0 0.0 0.00 0.00 0.00 66 1008.7
20260504003237 43 285 0.0 0.0 0.00 0.00 0.00 60 1008.6
20260504002237 44 285 0.0 0.0 0.00 0.00 0.00 59 1008.5
20260504001237 46 285 0.0 0.0 0.00 0.00 0.00 58 1008.2
20260504000236 46 285 0.0 0.0 0.00 0.00 0.00 49 1008.3
20260503235231 47 285 0.0 0.0 0.00 0.00 0.00 49 1008.2
20260503234227 48 303 1.0 1.0 0.00 0.00 0.00 46 1008.0
20260503233225 48 300 0.0 0.0 0.00 0.00 0.00 46 1008.1
20260503232225 49 297 0.0 0.0 0.00 0.00 0.00 45 1008.1
20260503231220 50 315 2.0 2.0 0.00 0.00 0.00 45 1007.9
20260503230220 50 303 2.0 2.0 0.00 0.00 0.00 43 1007.9
20260503225217 50 324 2.0 2.0 0.00 0.00 0.00 44 1007.6
20260503224212 51 21 1.0 2.0 0.00 0.00 0.00 43 1007.6
20260503223207 50 301 1.0 1.0 0.00 0.00 0.00 43 1007.4
20260503222207 50 326 2.0 4.0 0.00 0.00 0.00 41 1007.5
20260503221202 51 312 0.0 0.0 0.00 0.00 0.00 42 1007.3
20260503220201 50 303 3.0 4.0 0.00 0.00 0.00 43 1007.3
20260503215201 51 335 3.0 4.0 0.00 0.00 0.00 42 1007.4
20260503214201 50 289 2.0 4.0 0.00 0.00 0.00 41 1007.1
20260503213157 50 264 1.0 1.0 0.00 0.00 0.00 43 1007.3
20260503212157 52 276 1.0 2.0 0.00 0.00 0.00 42 1007.0
20260503211155 50 39 2.0 3.0 0.00 0.00 0.00 41 1006.8
20260503210154 50 214 4.0 7.0 0.00 0.00 0.00 41 1006.9
20260503205152 51 354 4.0 4.0 0.00 0.00 0.00 42 1006.7
20260503204152 51 334 6.0 8.0 0.00 0.00 0.00 43 1006.7
20260503203147 50 149 7.0 11.0 0.00 0.00 0.00 43 1006.6
20260503202142 51 330 2.0 2.0 0.00 0.00 0.00 44 1006.5
20260503201137 51 293 1.0 2.0 0.00 0.00 0.00 45 1006.3
20260503200135 51 6 7.0 9.0 0.00 0.00 0.00 42 1006.2
20260503195135 52 341 5.0 8.0 0.00 0.00 0.00 42 1006.3